Location: L�gaud
(45.7115°N, 1.7775°E)
Time: 18:44:44
(UTC+00:00)

GP-B - Pass Details

Date: 03 March 2021
Orbit: 631 x 635 km, 89.8° (Epoch: 12 April)

Event Time Altitude Azimuth Distance (km) Brightness Sun altitude
Rises 19:21:19 0° 183° (S) 2,917 6.4 -18.0°
Reaches altitude 10° 19:23:32 10° 185° (S) 2,014 5.6 -18.4°
Maximum altitude 19:27:57 70° 269° (W) 678 3.4 -19.1°
Drops below altitude 10° 19:32:25 10° 354° (N) 2,031 5.9 -19.9°
Sets 19:34:40 0° 357° (N) 2,945 6.7 -20.3°
